Regional Weather Roundup
Issued by NWS

Home | Current Version | Previous Version | Graphics & Text | Print | Product List | Glossary Off
Versions: 1 2 3 4 5 6 7 8 9 10 11 12 13 14 15 16 17 18 19 20 21 22 23 24 25 26 27 28 29 30 31 32 33 34 35 36 37 38 39 40 41 42 43 44 45 46 47 48 49 50

000
ASUS43 KMKX 192021
RWRWI

WISCONSIN REGIONAL WEATHER ROUNDUP
NATIONAL WEATHER SERVICE MILWAUKEE/SULLIVAN WI
300 PM CDT SAT APR 19 2014

NOTE: "FAIR" INDICATES FEW OR NO CLOUDS BELOW 12,000 FEET WITH NO
SIGNIFICANT WEATHER AND/OR OBSTRUCTIONS TO VISIBILITY.

WIZ001-002-006>008-014>016-023>028-192100-
NORTHWEST WISCONSIN

CITY           SKY/WX    TMP DP  RH WIND       PRES   REMARKS
SUPERIOR ARPT  CLOUDY    34  32  93 NE5       30.05F WCI  30
ASHLAND        CLOUDY    44  39  82 SW6       30.04F
HAYWARD        CLOUDY    50  32  50 VRB3      30.06R
SIREN          LGT RAIN  48  35  59 S5        30.03F
RICE LAKE      CLOUDY    58  33  38 S17       30.06S
LADYSMITH      PTSUNNY   58  34  41 SE21G26   30.10F
EAU CLAIRE     CLOUDY    64  34  32 S17       30.08F
MENOMONIE      CLOUDY    64  34  33 S21G28    30.06F
NEW RICHMOND   CLOUDY    58  38  47 S16       30.03F
OSCEOLA        CLOUDY    58  39  50 S8        30.05S
$$

WIZ003>005-009-010-017-018-192100-
NORTH CENTRAL WISCONSIN

CITY           SKY/WX    TMP DP  RH WIND       PRES   REMARKS
WOODRUFF       SUNNY     55  28  35 S13       30.12F
RHINELANDER    SUNNY     50  27  40 S12G22    30.16F
EAGLE RIVER    MOSUNNY   51  23  34 S16G23    30.14F
LAND O LAKES   MOSUNNY   52  23  32 S18G24    30.13F
PHILLIPS       CLOUDY    53  33  46 S17G28    30.10F
TOMAHAWK       SUNNY     52  29  41 SE12G17   30.14F
MEDFORD        SUNNY     55  35  46 SE15G26   30.14F
MERRILL        SUNNY     56  32  39 CALM      30.17F
$$

WIZ029-030-035-036-043>047-192100-
CENTRAL WISCONSIN

CITY           SKY/WX    TMP DP  RH WIND       PRES   REMARKS
WAUSAU         SUNNY     57  31  37 S14G22    30.18F
MOSINEE        SUNNY     55  34  44 SE15G22   30.19F
MARSHFIELD     SUNNY     61  36  39 S18G24    30.16F
STEVENS POINT  MOSUNNY   58  32  38 S13G18    30.20F
WAUPACA        MOSUNNY   59  32  36 SE13G22   30.24F
WAUTOMA        SUNNY     62  34  35 S12G18    30.22F
WISC RAPIDS    SUNNY     63  31  30 SE10G23   30.19F
CAMP DOUGLAS   SUNNY     64  35  33 S16G24    30.16F
$$

WIZ011>013-019>022-031-037>040-048>050-192100-
NORTHEAST WISCONSIN

CITY           SKY/WX    TMP DP  RH WIND       PRES   REMARKS
ANTIGO         SUNNY     51  32  47 S16       30.21F
STURGEON BAY   MOSUNNY   46  27  46 S16       30.30F
GREEN BAY      MOSUNNY   52  36  54 SE14      30.28F
MANITOWOC      PTSUNNY   46  32  58 S17       30.31F
APPLETON       PTSUNNY   52  30  43 SE16      30.26F
CLINTONVILLE   MOSUNNY   54  32  43 SE15      30.26F
OSHKOSH        MOSUNNY   56  34  43 S15G24    30.24F
$$

WIZ032>034-041-042-053>061-192100-
SOUTHWEST WISCONSIN

CITY           SKY/WX    TMP DP  RH WIND       PRES   REMARKS
LA CROSSE      MOSUNNY   67  34  29 S16       30.12F
SPARTA         MOSUNNY   68  33  27 S15G22    30.15F
VIROQUA        FAIR      65  36  34 S20G25    30.15F
BOSCOBEL       MOSUNNY   71  35  26 VRB7G17   30.17F
PRAIRIE DU CHI MOSUNNY   68  33  27 S10G20    30.15F
PLATTEVILLE    FAIR      66  35  31 S17       30.21F
$$

WIZ056-057-062-063-064-067-068-192100-
SOUTH CENTRAL WISCONSIN

CITY           SKY/WX    TMP DP  RH WIND       PRES   REMARKS
BARABOO/DELLS  SUNNY     63  33  32 S14G22    30.20F
LONE ROCK      MOSUNNY   67  36  31 S16       30.19F
WATERTOWN      SUNNY     60  36  39 SE13G20   30.26F
MADISON        PTSUNNY   64  34  32 S16G25    30.24F
MIDDLETON      FAIR      65  31  27 S16       30.22F
MONROE         MOSUNNY   65  35  31 S15G24    30.24F
JANESVILLE     SUNNY     66  30  26 S18       30.26F
$$

WIZ051-052-058>065-066-070>072-192100-
SOUTHEAST WISCONSIN

CITY           SKY/WX    TMP DP  RH WIND       PRES   REMARKS
MILWAUKEE      PTSUNNY   50  35  56 SE12      30.33F
WAUKESHA       PTSUNNY   55  30  38 SE17      30.31F
MILWAUKEE/TIMM SUNNY     52  32  46 E7        30.32F
RACINE         MOSUNNY   49  35  58 S10       30.33F
BURLINGTON     MOSUNNY   60  31  34 SW9G18    30.29F
KENOSHA        MOSUNNY   53  38  56 E12       30.30F
FOND DU LAC    MOSUNNY   57  35  43 SE18G26   30.26F
SHEBOYGAN      MOSUNNY   48  35  60 S15       30.31F
WEST BEND      MOSUNNY   52  32  46 S13       30.29F
JUNEAU         SUNNY     58  30  35 SE15G21   30.27F
$$

LSZ147-162-192100-
LAKE SUPERIOR

STATION/POSITION TIME  TEMP    WIND        PRES    WAVE
                       AIR SEA DIR/SP/G            HT/PER
                 (UTC) (F)     (DEG/KT/KT) (MB)    (FT/S)
DEVILS ISLAND    2000   34      80/  8/  9 1018.5F
PORT WING        1900   34      40/ 11/ 15 1017.9F
SAXON HARBOR     1900          190/ 12/ 25 1016.6
$$

LMZ867-665-643>646-192100-
LAKE MICHIGAN

STATION/POSITION TIME  TEMP    WIND        PRES    WAVE
                       AIR SEA DIR/SP/G            HT/PER
                 (UTC) (F)     (DEG/KT/KT) (MB)    (FT/S)
NORTHPORT PIER   1900   35     100/  6/  8 1028.1F
SISTER BAY       1909   51     140/ 11/ 15   N/A
KEWAUNEE LAKESHO 2000   37     160/  6/  9 1027.1F
SHEBOYGAN LAKESH 2000   39     170/ 13/ 14 1027.4F
PORT WASHINGTON  1940   44     190/  6/  8 1027.8F
MILWAUKEE LAKESH 2000   39     100/  5/  6   N/A
KENOSHA   LAKESH 2000   44      90/  3/  4   N/A
$$

TC  - TEMPERATURE IN CELSIUS
VSB - VISIBILITY IN STATUTE MILES
WCI - WIND CHILL INDEX
HX  - HEAT INDEX




USA.gov is the U.S. government's official web portal to all federal, state and local government web resources and services.